Content
SEND FEEDBACK

Daily
Averages
Monthly
Summary
United Kingdom

BRADWELL, ENGLAND


Home > Europe > United Kingdom > England
Elevation: 7 feet     Latitude: 52 36N     Longitude: 001 42E

WEATHER
 
SELECT A DAY
Number of Records: 213,597;   Date Range: 7/1/96 - 10/21/14
 
SHARE

PRINT THIS DATA

[ ← Previous Day ]
WEATHER ALMANAC - APRIL 10, 2014
[ Next Day → ]
[ °C ]   °F
Weather ElementAverageHighLow
Temperature52.7 °F59 °F (2:20 pm)46.4 °F (5:50 am)
Dewpoint44.4 °F46.4 °F (12:50 am)41 °F (12:20 pm)
Humidity74.4 %93 % (6:20 am)51 % (2:50 pm)
Barometer30.16 in30.21 in (12:50 am)30.12 in (4:20 pm)
Wind Speed4.8 mph9.2 mph (4:20 pm)
Weather ElementAverage
Visibility6.2 mi
Wind DirectionSSW (186.4 °)

Weather ElementTotal
Precipitation---
Heating Degree Days12.3 (Base 65)
Growing Degree Days2.7 (Base 50)
Averaged from 47 records on April 10, 2014
WEATHER CONDITIONS BREAKOUT
WIND DIRECTION BREAKOUT
WEATHER BY HOUR - APRIL 10, 2014
[ °C ]   °F
Local TimeTemperatureDewpointHumidityBarometerVisibilityWind DirectionWind SpeedGust SpeedPrecipitationEventsConditions
12:50 AM51.8 °F46.4 °F82 %30.21 in6.2 miWSW (240°)4.6 mphOvercast
1:20 AM51.8 °F46.4 °F82 %30.21 in6.2 miWSW (250°)5.8 mphOvercast
1:50 AM51.8 °F46.4 °F82 %30.21 in6.2 miWSW (250°)5.8 mphOvercast
2:20 AM50.0 °F46.4 °F87 %30.18 in6.2 miWSW (240°)3.5 mphOvercast
2:50 AM50.0 °F46.4 °F87 %30.18 in6.2 miWSW (240°)4.6 mphOvercast
3:20 AM50.0 °F46.4 °F87 %30.18 in6.2 miWSW (250°)5.8 mphOvercast
3:50 AM50.0 °F46.4 °F87 %30.18 in6.2 miWest (260°)4.6 mphMostly Cloudy
4:20 AM50.0 °F44.6 °F82 %30.18 in6.2 miWest (270°)6.9 mphMostly Cloudy
4:50 AM48.2 °F44.6 °F87 %30.18 in6.2 miWest (270°)5.8 mphMostly Cloudy
5:20 AM48.2 °F42.8 °F82 %30.18 in6.2 miWest (270°)5.8 mphMostly Cloudy
5:50 AM46.4 °F42.8 °F87 %30.18 in6.2 miWSW (250°)3.5 mphScattered Clouds
6:20 AM46.4 °F44.6 °F93 %30.18 in6.2 miWest (260°)5.8 mphScattered Clouds
6:50 AM48.2 °F44.6 °F87 %30.18 in6.2 miWest (260°)6.9 mphMostly Cloudy
7:20 AM48.2 °F42.8 °F82 %30.18 in6.2 miWest (270°)6.9 mphScattered Clouds
7:50 AM48.2 °F42.8 °F82 %30.18 in6.2 miWest (260°)5.8 mphPartly Cloudy
8:20 AM50.0 °F42.8 °F76 %30.18 in6.2 miWest (270°)6.9 mphPartly Cloudy
8:50 AM51.8 °F44.6 °F76 %30.18 in6.2 miWSW (240°)5.8 mphPartly Cloudy
9:20 AM53.6 °F44.6 °F72 %30.21 inWSW (250°)4.6 mphClear
9:50 AM53.6 °F42.8 °F67 %30.18 inWest (270°)5.8 mphClear
10:20 AM55.4 °F46.4 °F72 %30.18 inWNW (300°)4.6 mphClear
10:50 AM55.4 °F44.6 °F67 %30.18 in6.2 miWNW (290°)4.6 mphPartly Cloudy
11:20 AM57.2 °F44.6 °F63 %30.18 in6.2 miVariable3.5 mphPartly Cloudy
11:50 AM57.2 °F42.8 °F59 %30.18 in6.2 miVariable2.3 mphPartly Cloudy
12:20 PM57.2 °F41.0 °F55 %30.18 in6.2 miWNW (300°)5.8 mphPartly Cloudy
12:50 PM57.2 °F41.0 °F55 %30.18 in6.2 miWest (270°)5.8 mphScattered Clouds
1:20 PM57.2 °F42.8 °F59 %30.15 in6.2 miWest (280°)4.6 mphScattered Clouds
1:50 PM57.2 °F41.0 °F55 %30.15 in6.2 miWNW (290°)4.6 mphScattered Clouds
2:20 PM59.0 °F42.8 °F55 %30.15 in6.2 miWest (260°)4.6 mphScattered Clouds
2:50 PM59.0 °F41.0 °F51 %30.15 in6.2 miWNW (290°)8.1 mphScattered Clouds
3:20 PM57.2 °F42.8 °F59 %30.15 in6.2 miNNW (330°)5.8 mphScattered Clouds
3:50 PM57.2 °F46.4 °F67 %30.15 in6.2 miENE (70°)4.6 mphScattered Clouds
4:20 PM57.2 °F46.4 °F67 %30.12 in6.2 miENE (60°)9.2 mphScattered Clouds
4:50 PM55.4 °F44.6 °F67 %30.12 in6.2 miENE (70°)6.9 mphScattered Clouds
5:20 PM55.4 °F46.4 °F72 %30.12 in6.2 miEast (80°)6.9 mphScattered Clouds
5:50 PM53.6 °F44.6 °F72 %30.12 in6.2 miEast (80°)6.9 mphScattered Clouds
6:20 PM53.6 °F44.6 °F72 %30.12 in6.2 miEast (80°)5.8 mphMostly Cloudy
6:50 PM53.6 °F44.6 °F72 %30.12 in6.2 miEast (80°)3.5 mphMostly Cloudy
7:20 PM51.8 °F44.6 °F76 %30.12 in6.2 miEast (80°)3.5 mphMostly Cloudy
7:50 PM51.8 °F44.6 °F76 %30.12 in6.2 miEast (100°)3.5 mphMostly Cloudy
8:20 PM51.8 °F46.4 °F82 %30.15 in6.2 miESE (110°)3.5 mphMostly Cloudy
8:50 PM51.8 °F46.4 °F82 %30.15 in6.2 miENE (70°)3.5 mphMostly Cloudy
9:20 PM51.8 °F46.4 °F82 %30.15 in6.2 miEast (80°)2.3 mphMostly Cloudy
9:50 PM51.8 °F44.6 °F76 %30.15 in6.2 miVariable2.3 mph
10:20 PM51.8 °F44.6 °F76 %30.15 in6.2 miSE (140°)2.3 mph
10:50 PM51.8 °F44.6 °F76 %30.12 in6.2 miCalmPartly Cloudy
11:20 PM50.0 °F44.6 °F82 %30.12 in6.2 miVariable2.3 mph
11:50 PM50.0 °F44.6 °F82 %30.12 in6.2 miSouth (180°)1.2 mph
Hourly data recorded from EGSH, located miles away from Bradwell, England







STORIES FROM OUR PARTNERS